Simultaneous Nadir Overpasses (SNOs) Predictions

Prediction of SNOs between FY3D and AQUA Satellite Orbit:

Table of predicted SNOs for the next 14.0 days since TLE Epoch: 10/8/2022
Index Date (FY3D) Time (FY3D) Lat,Lon (FY3D) SZA (FY3D ) Date (AQUA) Time (AQUA) Lat,Lon (AQUA) SZA (AQUA ) Distance(km) Time Diff (sec)
1 10/10/2022 14:26:31 -77.10, 129.46 95.97 10/10/2022 14:26:56 -77.10, 129.47 95.98 0.34 25
2 10/10/2022 15:16:58 76.27, -59.95 83.11 10/10/2022 15:16:05 76.27, -59.95 83.11 0.23 53
3 10/13/2022 05:02:55 -77.46, -91.16 94.58 10/13/2022 05:03:50 -77.45, -91.10 94.60 1.70 55
4 10/13/2022 05:53:23 76.69, 79.44 84.55 10/13/2022 05:53:00 76.69, 79.46 84.55 0.48 23
5 10/15/2022 20:29:47 77.06,-141.11 85.93 10/15/2022 20:29:53 77.05,-141.05 85.92 1.60 6
6 10/15/2022 21:20:08 -75.98, 30.31 95.27 10/15/2022 21:18:56 -75.99, 30.22 95.24 2.75 72
7 10/18/2022 11:06:02 77.08, -0.26 86.91 10/18/2022 11:06:37 77.09, -0.37 86.91 2.92 35
8 10/18/2022 11:56:32 -76.42, 169.71 93.84 10/18/2022 11:55:48 -76.42, 169.67 93.83 0.97 44
9 10/21/2022 01:42:26 77.46, 139.04 88.27 10/21/2022 01:43:28 77.46, 139.01 88.27 0.80 62



Historial Predications of SNOs between FY3D and AQUA
